EW6304 Weather Reports


Display with metric or nautical units.
time (UTC)temp
F
wind
direction
speed
MPH
gust
MPH
rain 1hr
in
rain 24hr
in
rain mn
in
humidity
%
barometer
mb
20260504210838 69 68 3.0 10.0 0.00 0.00 0.00 41 1006.7
20260504210831 69 82 2.0 10.0 0.00 0.00 0.00 43 1006.7
20260504205832 70 134 3.0 11.0 0.00 0.00 0.00 41 1006.6
20260504205330 70 197 3.0 11.0 0.00 0.00 0.00 40 1006.6
20260504204835 70 65 2.0 6.0 0.00 0.00 0.00 41 1006.5
20260504204830 70 36 2.0 6.0 0.00 0.00 0.00 40 1006.6
20260504203829 70 67 3.0 7.0 0.00 0.00 0.00 41 1006.5
20260504203331 70 68 3.0 12.0 0.00 0.00 0.00 41 1006.6
20260504202829 70 75 3.0 12.0 0.00 0.00 0.00 40 1006.5
20260504202330 70 51 3.0 10.0 0.00 0.00 0.00 41 1006.5
20260504201831 71 142 3.0 7.0 0.00 0.00 0.00 39 1006.5
20260504201331 71 127 3.0 9.0 0.00 0.00 0.00 37 1006.5
20260504200831 71 72 2.0 9.0 0.00 0.00 0.00 37 1006.5
20260504200331 72 296 2.0 9.0 0.00 0.00 0.00 35 1006.6
20260504195831 72 59 2.0 12.0 0.00 0.00 0.00 36 1006.5
20260504195329 72 263 3.0 12.0 0.00 0.00 0.00 34 1006.5
20260504194829 72 151 2.0 9.0 0.00 0.00 0.00 34 1006.6
20260504194329 73 44 2.0 7.0 0.00 0.00 0.00 36 1006.6
20260504193824 72 144 3.0 13.0 0.00 0.00 0.00 33 1006.7
20260504193326 72 355 4.0 13.0 0.00 0.00 0.00 32 1006.6
20260504193321 72 313 3.0 13.0 0.00 0.00 0.00 33 1006.6
20260504192941 72 252 3.0 13.0 0.00 0.00 0.00 32 1006.6
20260504191823 72 319 3.0 10.0 0.00 0.00 0.00 30 1006.6
20260504191323 73 342 4.0 12.0 0.00 0.00 0.00 31 1006.7
20260504190827 73 247 4.0 12.0 0.00 0.00 0.00 32 1006.7
20260504190822 72 312 4.0 12.0 0.00 0.00 0.00 31 1006.6
20260504185822 72 85 4.0 16.0 0.00 0.00 0.00 30 1006.8
20260504185323 73 51 3.0 16.0 0.00 0.00 0.00 32 1006.8
20260504184821 73 296 3.0 8.0 0.00 0.00 0.00 34 1006.8
20260504184322 73 80 3.0 11.0 0.00 0.00 0.00 31 1006.6
20260504183825 73 191 3.0 7.0 0.00 0.00 0.00 33 1007.0
20260504183820 73 270 3.0 11.0 0.00 0.00 0.00 29 1006.8
20260504182820 72 61 4.0 10.0 0.00 0.00 0.00 31 1007.0
20260504182319 72 317 4.0 13.0 0.00 0.00 0.00 32 1006.9
20260504181821 72 302 4.0 13.0 0.00 0.00 0.00 31 1007.1
20260504181319 72 284 4.0 12.0 0.00 0.00 0.00 33 1007.0
20260504180828 71 318 4.0 18.0 0.00 0.00 0.00 32 1007.2
20260504180821 72 258 3.0 12.0 0.00 0.00 0.00 31 1007.4
20260504175819 71 244 4.0 18.0 0.00 0.00 0.00 31 1007.3
20260504175320 71 120 4.0 11.0 0.00 0.00 0.00 30 1007.2
20260504174827 71 250 3.0 13.0 0.00 0.00 0.00 32 1007.1
20260504174821 71 336 4.0 13.0 0.00 0.00 0.00 31 1007.1
20260504173816 72 333 3.0 12.0 0.00 0.00 0.00 30 1006.9
20260504173323 72 72 3.0 12.0 0.00 0.00 0.00 33 1007.1
20260504173318 72 90 3.0 12.0 0.00 0.00 0.00 30 1007.0
20260504172317 72 267 3.0 11.0 0.00 0.00 0.00 32 1007.3
20260504171817 71 35 3.0 10.0 0.00 0.00 0.00 32 1007.0
20260504171319 72 192 4.0 14.0 0.00 0.00 0.00 34 1007.2
20260504170817 71 234 4.0 14.0 0.00 0.00 0.00 31 1007.1
20260504170318 71 278 4.0 16.0 0.00 0.00 0.00 34 1007.1
20260504160316 71 275 3.0 10.0 0.00 0.00 0.00 35 1008.0
20260504150814 68 9 3.0 12.0 0.00 0.00 0.00 37 1008.6
20260504150311 68 44 3.0 12.0 0.00 0.00 0.00 35 1008.5
20260504141309 66 177 2.0 7.0 0.00 0.00 0.00 42 1009.1
20260504140809 66 287 2.0 7.0 0.00 0.00 0.00 39 1009.2
20260504140317 65 340 3.0 10.0 0.00 0.00 0.00 44 1009.3
20260504140310 65 336 3.0 10.0 0.00 0.00 0.00 41 1009.3
20260504130810 60 320 3.0 8.0 0.00 0.00 0.00 47 1009.9
20260504130310 59 302 3.0 8.0 0.00 0.00 0.00 49 1009.9
20260504120311 53 0 2.0 7.0 0.00 0.00 0.00 56 1010.2
20260504120307 54 0 2.0 7.0 0.00 0.00 0.00 56 1010.1
20260504110302 46 282 0.0 1.0 0.00 0.00 0.00 67 1010.4
20260504100300 44 281 0.0 1.0 0.00 0.00 0.00 68 1010.2
20260504081752 43 281 0.0 1.0 0.00 0.00 0.00 71 1010.0
20260504081252 43 281 0.0 1.0 0.00 0.00 0.00 72 1010.0
20260504080758 43 281 0.0 0.0 0.00 0.00 0.00 70 1009.8
20260504080752 43 281 0.0 1.0 0.00 0.00 0.00 71 1009.9
20260504070253 42 281 0.0 1.0 0.00 0.00 0.00 71 1009.8
20260504060249 41 281 0.0 1.0 0.00 0.00 0.00 72 1009.7
20260504050245 39 281 0.0 1.0 0.00 0.00 0.00 73 1009.6
20260504045745 39 281 0.0 1.0 0.00 0.00 0.00 73 1009.7
20260504045247 39 281 0.0 1.0 0.00 0.00 0.00 73 1009.6
20260504044745 39 281 0.0 1.0 0.00 0.00 0.00 73 1009.6
20260504044251 39 281 0.0 1.0 0.00 0.00 0.00 73 1009.6
20260504044246 39 281 0.0 1.0 0.00 0.00 0.00 73 1009.7
20260504043247 38 281 0.0 1.0 0.00 0.00 0.00 73 1009.5
20260504042745 38 281 0.0 1.0 0.00 0.00 0.00 73 1009.5
20260504042246 38 281 0.0 1.0 0.00 0.00 0.00 73 1009.5
20260504041744 38 281 0.0 1.0 0.00 0.00 0.00 73 1009.5
20260504041241 38 281 0.0 1.0 0.00 0.00 0.00 73 1009.5
20260504040742 38 281 0.0 1.0 0.00 0.00 0.00 74 1009.4
20260504040240 38 281 0.0 1.0 0.00 0.00 0.00 74 1009.4
20260504035741 38 281 0.0 1.0 0.00 0.00 0.00 74 1009.4
20260504035242 38 281 0.0 1.0 0.00 0.00 0.00 74 1009.3
20260504034744 39 279 0.0 0.0 0.00 0.00 0.00 73 1009.2
20260504034740 38 281 0.0 1.0 0.00 0.00 0.00 74 1009.3
20260504033740 39 281 0.0 0.0 0.00 0.00 0.00 71 1009.2
20260504033239 39 281 0.0 0.0 0.00 0.00 0.00 71 1009.2
20260504032740 39 281 0.0 0.0 0.00 0.00 0.00 71 1009.2
20260504032240 39 281 0.0 0.0 0.00 0.00 0.00 71 1009.2
20260504031740 39 0 0.0 0.0 0.00 0.00 0.00 70 1009.2
20260504031238 39 279 0.0 0.0 0.00 0.00 0.00 70 1009.2
20260504030738 39 279 0.0 0.0 0.00 0.00 0.00 70 1009.2
20260504030238 39 279 0.0 0.0 0.00 0.00 0.00 70 1009.2
20260504025740 39 279 0.0 0.0 0.00 0.00 0.00 70 1009.2
20260504025242 40 279 0.0 0.0 0.00 0.00 0.00 70 1009.1
20260504025237 40 280 0.0 0.0 0.00 0.00 0.00 70 1009.1
20260504024238 40 279 0.0 0.0 0.00 0.00 0.00 69 1009.1
20260504023738 40 279 0.0 0.0 0.00 0.00 0.00 69 1009.1
20260504023237 40 279 0.0 0.0 0.00 0.00 0.00 68 1009.1
20260504022738 40 280 0.0 0.0 0.00 0.00 0.00 68 1009.1
20260504022235 41 279 0.0 1.0 0.00 0.00 0.00 68 1009.0
20260504021735 41 281 0.0 1.0 0.00 0.00 0.00 66 1009.0
20260504021237 41 281 0.0 1.0 0.00 0.00 0.00 66 1009.0
20260504020737 41 281 0.0 1.0 0.00 0.00 0.00 65 1008.9
20260504020236 42 281 0.0 1.0 0.00 0.00 0.00 65 1009.0
20260504015734 42 281 0.0 0.0 0.00 0.00 0.00 64 1008.9
20260504015236 42 0 0.0 0.0 0.00 0.00 0.00 63 1008.9
20260504014736 43 0 0.0 0.0 0.00 0.00 0.00 62 1008.8
20260504014234 43 0 0.0 0.0 0.00 0.00 0.00 61 1008.8
20260504013733 43 0 0.0 1.0 0.00 0.00 0.00 61 1008.7
20260504013233 44 279 0.0 1.0 0.00 0.00 0.00 60 1008.7
20260504012734 44 280 0.0 0.0 0.00 0.00 0.00 58 1008.6
20260504012235 44 280 0.0 0.0 0.00 0.00 0.00 58 1008.6
20260504011733 45 280 0.0 0.0 0.00 0.00 0.00 56 1008.6
20260504010733 46 281 0.0 0.0 0.00 0.00 0.00 55 1008.4
20260504010235 46 281 0.0 0.0 0.00 0.00 0.00 54 1008.5
20260504005732 47 281 0.0 0.0 0.00 0.00 0.00 52 1008.4
20260504005234 47 281 0.0 0.0 0.00 0.00 0.00 51 1008.2
20260504004733 48 281 0.0 1.0 0.00 0.00 0.00 49 1008.2
20260504004238 50 281 0.0 1.0 0.00 0.00 0.00 47 1008.0
20260504004233 49 281 0.0 1.0 0.00 0.00 0.00 49 1008.2
20260504003851 51 281 1.0 5.0 0.00 0.00 0.00 45 1008.0
20260504002732 51 280 1.0 5.0 0.00 0.00 0.00 44 1007.9
20260504002233 51 276 1.0 7.0 0.00 0.00 0.00 43 1007.9
20260504001734 51 277 2.0 7.0 0.00 0.00 0.00 43 1007.8
20260504001238 52 263 2.0 4.0 0.00 0.00 0.00 42 1007.8
20260504001234 51 275 2.0 6.0 0.00 0.00 0.00 42 1007.7
20260504000234 52 249 2.0 8.0 0.00 0.00 0.00 42 1007.7
20260503235734 52 253 2.0 8.0 0.00 0.00 0.00 42 1007.6
20260503235232 52 293 3.0 8.0 0.00 0.00 0.00 41 1007.5
20260503234735 52 276 4.0 10.0 0.00 0.00 0.00 41 1007.4
20260503234233 53 319 4.0 10.0 0.00 0.00 0.00 41 1007.3
20260503233737 53 296 3.0 7.0 0.00 0.00 0.00 41 1007.2
20260503233732 52 307 3.0 10.0 0.00 0.00 0.00 41 1007.3
20260503232732 53 262 3.0 8.0 0.00 0.00 0.00 41 1007.1
20260503232234 53 315 3.0 8.0 0.00 0.00 0.00 41 1007.0
20260503231734 53 294 3.0 9.0 0.00 0.00 0.00 40 1007.0
20260503231236 53 295 3.0 9.0 0.00 0.00 0.00 40 1006.9
20260503231232 53 242 4.0 10.0 0.00 0.00 0.00 41 1006.9
20260503230232 53 250 5.0 13.0 0.00 0.00 0.00 39 1006.9
20260503225736 53 337 6.0 14.0 0.00 0.00 0.00 39 1006.7
20260503225732 53 274 5.0 13.0 0.00 0.00 0.00 39 1006.8
20260503225350 54 321 5.0 12.0 0.00 0.00 0.00 40 1006.5
20260503224731 54 307 6.0 14.0 0.00 0.00 0.00 38 1006.6
20260503223731 53 265 6.0 16.0 0.00 0.00 0.00 39 1006.5
20260503223237 53 254 6.0 16.0 0.00 0.00 0.00 40 1006.3
20260503223230 53 305 6.0 16.0 0.00 0.00 0.00 40 1006.4
20260503222231 53 336 6.0 14.0 0.00 0.00 0.00 40 1006.3
20260503221729 54 226 6.0 13.0 0.00 0.00 0.00 40 1006.2
20260503221228 54 292 5.0 15.0 0.00 0.00 0.00 41 1006.0
20260503220729 54 286 6.0 15.0 0.00 0.00 0.00 40 1006.0
20260503220234 54 262 5.0 12.0 0.00 0.00 0.00 39 1005.8
20260503220229 54 316 5.0 13.0 0.00 0.00 0.00 39 1006.0
20260503215230 54 244 6.0 14.0 0.00 0.00 0.00 39 1005.7
20260503214731 54 287 7.0 15.0 0.00 0.00 0.00 38 1005.6
20260503214228 54 311 7.0 18.0 0.00 0.00 0.00 38 1005.5
20260503213728 54 315 8.0 18.0 0.00 0.00 0.00 38 1005.6
20260503213228 54 331 6.0 17.0 0.00 0.00 0.00 39 1005.5
20260503212729 55 261 6.0 17.0 0.00 0.00 0.00 40 1005.4
20260503212229 55 269 5.0 13.0 0.00 0.00 0.00 39 1005.3
20260503211726 55 292 5.0 13.0 0.00 0.00 0.00 40 1005.2